CFI027 ZSNJ-ZLXY

Flight info

Callsign CFI027
Flight time 1h 32m
Altitude 40100
Route HFE DCT AVLOG W127 AKNAX V78 ISNEB V104 AVNOD DCT EPGOS W128 KAMDA W638 PASGU DCT URGIN DCT NUGSA DCT UPSIK DCT TAREX DCT NSH
Aircraft C750/M-SDE2E3FGHIJ1RWXY/LB1

Departure

Time 2026-05-06 11:29
Airport Nanjing Lukou International Airport (ZSNJ)

Arrival

Time 2026-05-06 13:01
Airport Xi'an Xianyang International Airport (ZLXY)
Time Latitude Longitude Altitude Speed Heading
2026-05-06 11:04 31.73447 118.87995 55 ft 0 kts 328°
2026-05-06 11:25 31.73447 118.87993 27 ft 0 kts 304°
2026-05-06 11:26 31.73444 118.87990 27 ft 1 kts 229°
2026-05-06 11:26 31.73427 118.88005 55 ft 7 kts 139°
2026-05-06 11:26 31.73365 118.88024 53 ft 10 kts 236°
2026-05-06 11:26 31.73333 118.87962 55 ft 8 kts 238°
2026-05-06 11:27 31.73289 118.87889 55 ft 12 kts 213°
2026-05-06 11:27 31.73222 118.87911 55 ft 10 kts 146°
2026-05-06 11:27 31.73167 118.87953 55 ft 9 kts 147°
2026-05-06 11:27 31.73133 118.87979 52 ft 0 kts 147°
2026-05-06 11:28 31.73114 118.87991 53 ft 11 kts 153°
2026-05-06 11:29 31.72989 118.87868 51 ft 59 kts 240°
2026-05-06 11:29 31.72573 118.87106 57 ft 150 kts 238°
2026-05-06 11:29 31.72003 118.85973 444 ft 165 kts 240°
2026-05-06 11:29 31.71449 118.84780 730 ft 164 kts 239°
2026-05-06 11:30 31.70731 118.83569 855 ft 192 kts 231°
2026-05-06 11:30 31.69994 118.82333 1761 ft 175 kts 233°
2026-05-06 11:30 31.69352 118.81138 2501 ft 174 kts 235°
2026-05-06 11:30 31.68707 118.79929 3174 ft 174 kts 234°
2026-05-06 11:31 31.68067 118.78734 3866 ft 172 kts 235°
2026-05-06 11:31 31.67570 118.77448 4491 ft 179 kts 255°
2026-05-06 11:31 31.67541 118.75979 5161 ft 179 kts 266°
2026-05-06 11:31 31.67528 118.74502 5684 ft 189 kts 264°
2026-05-06 11:32 31.67497 118.72837 5979 ft 218 kts 265°
2026-05-06 11:32 31.67475 118.70946 6336 ft 245 kts 266°
2026-05-06 11:32 31.67456 118.68846 6702 ft 269 kts 266°
2026-05-06 11:32 31.67435 118.66628 7561 ft 271 kts 267°
2026-05-06 11:33 31.67412 118.64417 8562 ft 272 kts 268°
2026-05-06 11:33 31.67386 118.62182 9491 ft 276 kts 268°
2026-05-06 11:33 31.67353 118.59919 10274 ft 280 kts 268°
2026-05-06 11:33 31.67312 118.57531 10482 ft 305 kts 268°
2026-05-06 11:34 31.67269 118.54927 10516 ft 333 kts 268°
2026-05-06 11:34 31.67227 118.52149 10940 ft 342 kts 268°
2026-05-06 11:34 31.67185 118.49360 11707 ft 343 kts 268°
2026-05-06 11:34 31.67141 118.46579 12321 ft 347 kts 268°
2026-05-06 11:35 31.67098 118.43734 12986 ft 351 kts 269°
2026-05-06 11:35 31.67054 118.40861 13633 ft 354 kts 269°
2026-05-06 11:35 31.67008 118.37958 14220 ft 357 kts 269°
2026-05-06 11:35 31.66962 118.35042 14805 ft 359 kts 269°
2026-05-06 11:36 31.66914 118.32095 15372 ft 362 kts 269°
2026-05-06 11:36 31.66865 118.29129 15973 ft 365 kts 269°
2026-05-06 11:36 31.66816 118.26147 16581 ft 367 kts 269°
2026-05-06 11:36 31.66764 118.23133 17198 ft 370 kts 269°
2026-05-06 11:37 31.66712 118.20096 17827 ft 374 kts 269°
2026-05-06 11:37 31.66631 118.17033 18401 ft 377 kts 266°
2026-05-06 11:37 31.66347 118.13964 18962 ft 380 kts 263°
2026-05-06 11:37 31.66028 118.10881 19575 ft 382 kts 263°
2026-05-06 11:38 31.65730 118.07774 20188 ft 385 kts 264°
2026-05-06 11:38 31.65444 118.04641 20780 ft 388 kts 264°
2026-05-06 11:38 31.65143 118.01483 21399 ft 391 kts 263°
2026-05-06 11:38 31.64830 117.98299 22005 ft 394 kts 263°
2026-05-06 11:39 31.64519 117.95090 22615 ft 397 kts 263°
2026-05-06 11:39 31.64209 117.91856 23212 ft 400 kts 263°
2026-05-06 11:39 31.63894 117.88599 23767 ft 403 kts 263°
2026-05-06 11:39 31.63574 117.85322 24265 ft 407 kts 263°
2026-05-06 11:40 31.63250 117.82008 24742 ft 411 kts 263°
2026-05-06 11:40 31.62924 117.78666 25224 ft 414 kts 263°
2026-05-06 11:40 31.62594 117.75298 25712 ft 417 kts 264°
2026-05-06 11:40 31.62260 117.71898 26190 ft 421 kts 264°
2026-05-06 11:41 31.61922 117.68471 26647 ft 425 kts 264°
2026-05-06 11:41 31.61623 117.65009 27086 ft 429 kts 267°
2026-05-06 11:41 31.61718 117.61508 27565 ft 431 kts 276°
2026-05-06 11:41 31.62235 117.58079 28047 ft 435 kts 284°
2026-05-06 11:42 31.63193 117.54701 28522 ft 439 kts 292°
2026-05-06 11:42 31.64576 117.51500 29003 ft 442 kts 300°
2026-05-06 11:42 31.66329 117.48510 29469 ft 446 kts 305°
2026-05-06 11:42 31.68146 117.45552 29942 ft 448 kts 304°
2026-05-06 11:43 31.69958 117.42563 30348 ft 451 kts 304°
2026-05-06 11:43 31.71811 117.39585 30764 ft 453 kts 307°
2026-05-06 11:43 31.73974 117.36897 31341 ft 451 kts 315°
2026-05-06 11:44 31.79068 117.32662 32634 ft 451 kts 329°
2026-05-06 11:44 31.81943 117.31178 33239 ft 452 kts 336°
2026-05-06 11:44 31.84975 117.30157 33838 ft 455 kts 343°
2026-05-06 11:44 31.88119 117.29624 34354 ft 459 kts 351°
2026-05-06 11:45 31.91314 117.29455 34837 ft 459 kts 353°
2026-05-06 11:45 31.94496 117.29293 35311 ft 458 kts 352°
2026-05-06 11:45 31.97677 117.29115 35779 ft 458 kts 352°
2026-05-06 11:45 32.00840 117.28800 36213 ft 454 kts 346°
2026-05-06 11:46 32.03875 117.27919 36688 ft 446 kts 336°
2026-05-06 11:46 32.06691 117.26463 37177 ft 439 kts 327°
2026-05-06 11:46 32.09215 117.24482 37689 ft 432 kts 317°
2026-05-06 11:46 32.11365 117.22051 38218 ft 426 kts 307°
2026-05-06 11:47 32.13195 117.19333 38721 ft 422 kts 303°
2026-05-06 11:47 32.14927 117.16550 39186 ft 420 kts 303°
2026-05-06 11:47 32.16738 117.13848 39649 ft 419 kts 307°
2026-05-06 11:47 32.18683 117.11273 39953 ft 422 kts 308°
2026-05-06 11:48 32.22565 117.05862 39923 ft 440 kts 305°
2026-05-06 11:48 32.26554 117.00197 39942 ft 457 kts 307°
2026-05-06 11:49 32.30704 116.94394 39947 ft 467 kts 306°
2026-05-06 11:49 32.34903 116.88431 39946 ft 476 kts 307°
2026-05-06 11:50 32.39185 116.82402 39938 ft 480 kts 306°
2026-05-06 11:50 32.43466 116.76322 39939 ft 481 kts 306°
2026-05-06 11:51 32.47037 116.71267 39930 ft 481 kts 306°
2026-05-06 11:51 32.52034 116.64162 39929 ft 480 kts 306°
2026-05-06 11:52 32.55586 116.59110 39933 ft 480 kts 306°
2026-05-06 11:52 32.60572 116.52003 39927 ft 479 kts 306°
2026-05-06 11:53 32.64112 116.46948 39916 ft 479 kts 306°
2026-05-06 11:53 32.68369 116.40861 39922 ft 479 kts 306°
2026-05-06 11:54 32.72624 116.34766 39915 ft 480 kts 306°
2026-05-06 11:54 32.76880 116.28661 39915 ft 480 kts 306°
2026-05-06 11:55 32.81137 116.22543 39911 ft 481 kts 306°
2026-05-06 11:55 32.85218 116.16266 39875 ft 476 kts 297°
2026-05-06 11:56 32.88386 116.09354 39922 ft 477 kts 296°
2026-05-06 11:56 32.91597 116.02437 39924 ft 478 kts 295°
2026-05-06 11:57 32.94756 115.95533 39909 ft 479 kts 295°
2026-05-06 11:57 32.97956 115.88578 39910 ft 479 kts 295°
2026-05-06 11:58 32.99371 115.84955 39833 ft 475 kts 284°
2026-05-06 11:58 32.99856 115.81145 39873 ft 471 kts 272°
2026-05-06 11:58 32.99402 115.73383 39929 ft 471 kts 263°
2026-05-06 11:59 32.98918 115.65580 39911 ft 473 kts 266°
2026-05-06 11:59 32.98430 115.57781 39919 ft 472 kts 264°
2026-05-06 12:00 32.97901 115.49975 39903 ft 473 kts 265°
2026-05-06 12:00 32.98278 115.42182 39889 ft 476 kts 282°
2026-05-06 12:01 33.00542 115.34728 39906 ft 480 kts 288°
2026-05-06 12:01 33.02922 115.27292 39910 ft 481 kts 288°
2026-05-06 12:02 33.05299 115.19846 39899 ft 481 kts 288°
2026-05-06 12:02 33.07672 115.12405 39902 ft 480 kts 288°
2026-05-06 12:03 33.10038 115.04955 39910 ft 481 kts 288°
2026-05-06 12:03 33.12405 114.97492 39909 ft 481 kts 288°
2026-05-06 12:04 33.14769 114.90018 39914 ft 481 kts 288°
2026-05-06 12:04 33.17126 114.82551 39913 ft 481 kts 288°
2026-05-06 12:05 33.19479 114.75075 39916 ft 481 kts 288°
2026-05-06 12:05 33.21822 114.67605 39911 ft 481 kts 288°
2026-05-06 12:06 33.24135 114.60175 39906 ft 481 kts 288°
2026-05-06 12:06 33.26483 114.52640 39907 ft 481 kts 288°
2026-05-06 12:07 33.28790 114.45201 39910 ft 481 kts 288°
2026-05-06 12:07 33.31145 114.37719 39903 ft 481 kts 288°
2026-05-06 12:08 33.33498 114.30231 39901 ft 481 kts 288°
2026-05-06 12:08 33.35846 114.22739 39904 ft 481 kts 288°
2026-05-06 12:09 33.37394 114.19170 39870 ft 487 kts 300°
2026-05-06 12:09 33.39407 114.15913 39912 ft 488 kts 303°
2026-05-06 12:09 33.43556 114.09476 39913 ft 488 kts 303°
2026-05-06 12:10 33.47662 114.03001 39911 ft 488 kts 303°
2026-05-06 12:10 33.51783 113.96546 39913 ft 487 kts 303°
2026-05-06 12:11 33.55881 113.90086 39911 ft 487 kts 303°
2026-05-06 12:11 33.59978 113.83632 39916 ft 486 kts 303°
2026-05-06 12:12 33.64059 113.77182 39915 ft 485 kts 303°
2026-05-06 12:12 33.67157 113.70146 39889 ft 475 kts 284°
2026-05-06 12:13 33.67848 113.62352 39924 ft 470 kts 268°
2026-05-06 12:13 33.67681 113.54494 39928 ft 471 kts 268°
2026-05-06 12:14 33.67530 113.46629 39932 ft 471 kts 268°
2026-05-06 12:14 33.67363 113.38782 39932 ft 470 kts 268°
2026-05-06 12:15 33.67197 113.30933 39935 ft 470 kts 268°
2026-05-06 12:15 33.67023 113.23095 39939 ft 470 kts 268°
2026-05-06 12:16 33.66846 113.15258 39950 ft 470 kts 268°
2026-05-06 12:16 33.66663 113.07422 39954 ft 470 kts 268°
2026-05-06 12:17 33.66477 112.99639 39964 ft 469 kts 268°
2026-05-06 12:17 33.66285 112.91810 39966 ft 469 kts 268°
2026-05-06 12:18 33.66086 112.83925 39964 ft 470 kts 268°
2026-05-06 12:18 33.65885 112.76141 39966 ft 470 kts 268°
2026-05-06 12:19 33.65678 112.68298 39969 ft 471 kts 268°
2026-05-06 12:19 33.65465 112.60440 39976 ft 471 kts 268°
2026-05-06 12:20 33.65247 112.52597 39983 ft 470 kts 268°
2026-05-06 12:20 33.64876 112.44786 39994 ft 469 kts 265°
2026-05-06 12:21 33.64371 112.36963 40000 ft 471 kts 266°
2026-05-06 12:21 33.63856 112.29128 40015 ft 470 kts 265°
2026-05-06 12:22 33.63334 112.21312 40019 ft 471 kts 265°
2026-05-06 12:22 33.62811 112.13477 40024 ft 471 kts 265°
2026-05-06 12:23 33.62278 112.05662 40025 ft 470 kts 265°
2026-05-06 12:23 33.61745 111.97849 40028 ft 470 kts 265°
2026-05-06 12:24 33.61208 111.90081 40032 ft 469 kts 265°
2026-05-06 12:24 33.60666 111.82294 40028 ft 469 kts 265°
2026-05-06 12:25 33.60116 111.74499 40048 ft 469 kts 265°
2026-05-06 12:25 33.59564 111.66689 40039 ft 470 kts 265°
2026-05-06 12:26 33.59005 111.58899 40061 ft 468 kts 265°
2026-05-06 12:26 33.58443 111.51094 40037 ft 470 kts 265°
2026-05-06 12:27 33.57875 111.43302 40049 ft 469 kts 265°
2026-05-06 12:27 33.57301 111.35503 40041 ft 470 kts 265°
2026-05-06 12:28 33.56160 111.20165 40106 ft 469 kts 265°
2026-05-06 12:29 33.55864 111.16276 40219 ft 467 kts 265°
2026-05-06 12:29 33.55567 111.12406 40348 ft 466 kts 265°
2026-05-06 12:29 33.55268 111.08540 40484 ft 465 kts 265°
2026-05-06 12:29 33.54968 111.04688 40585 ft 464 kts 264°
2026-05-06 12:30 33.54348 110.97036 40710 ft 465 kts 264°
2026-05-06 12:30 33.53695 110.89293 40664 ft 468 kts 264°
2026-05-06 12:31 33.53046 110.81522 40481 ft 468 kts 264°
2026-05-06 12:31 33.52389 110.73767 40280 ft 468 kts 264°
2026-05-06 12:32 33.51704 110.66010 40148 ft 469 kts 264°
2026-05-06 12:32 33.50957 110.58253 40179 ft 468 kts 263°
2026-05-06 12:33 33.50125 110.50524 40347 ft 467 kts 263°
2026-05-06 12:33 33.49664 110.46672 40450 ft 467 kts 262°
2026-05-06 12:33 33.49173 110.42835 40550 ft 466 kts 262°
2026-05-06 12:34 33.48094 110.35180 40703 ft 466 kts 261°
2026-05-06 12:34 33.46901 110.27543 40760 ft 467 kts 259°
2026-05-06 12:35 33.45568 110.19929 40700 ft 468 kts 258°
2026-05-06 12:35 33.44064 110.12347 40574 ft 469 kts 257°
2026-05-06 12:36 33.43634 110.04681 40142 ft 474 kts 282°
2026-05-06 12:36 33.45027 110.01109 40065 ft 477 kts 301°
2026-05-06 12:36 33.47328 109.98225 40118 ft 484 kts 314°
2026-05-06 12:37 33.52810 109.93415 40150 ft 491 kts 320°
2026-05-06 12:37 33.58236 109.88460 40130 ft 488 kts 315°
2026-05-06 12:38 33.63036 109.82819 40096 ft 479 kts 305°
2026-05-06 12:38 33.66736 109.76234 40132 ft 475 kts 298°
2026-05-06 12:39 33.70260 109.69565 40138 ft 478 kts 302°
2026-05-06 12:39 33.74160 109.63116 40106 ft 474 kts 297°
2026-05-06 12:40 33.76318 109.55766 40135 ft 467 kts 278°
2026-05-06 12:40 33.76166 109.48011 40129 ft 467 kts 259°
2026-05-06 12:41 33.73863 109.40682 40169 ft 470 kts 248°
2026-05-06 12:41 33.71147 109.33521 40161 ft 471 kts 248°
2026-05-06 12:42 33.68440 109.26351 40151 ft 471 kts 248°
2026-05-06 12:42 33.65720 109.19203 40145 ft 471 kts 248°
2026-05-06 12:43 33.62995 109.12019 39465 ft 477 kts 248°
2026-05-06 12:43 33.61613 109.08399 38853 ft 478 kts 248°
2026-05-06 12:43 33.60224 109.04765 38162 ft 480 kts 248°
2026-05-06 12:44 33.58838 109.01130 37542 ft 480 kts 247°
2026-05-06 12:44 33.57444 108.97480 36919 ft 483 kts 247°
2026-05-06 12:44 33.56041 108.93814 36257 ft 485 kts 247°
2026-05-06 12:44 33.54631 108.90136 35630 ft 486 kts 247°
2026-05-06 12:45 33.53215 108.86441 34993 ft 490 kts 247°
2026-05-06 12:45 33.51786 108.82715 34342 ft 494 kts 247°
2026-05-06 12:45 33.49573 108.74946 32983 ft 496 kts 262°
2026-05-06 12:46 33.49492 108.70807 32330 ft 500 kts 274°
2026-05-06 12:46 33.50170 108.66707 31668 ft 505 kts 286°
2026-05-06 12:46 33.51597 108.62847 31004 ft 510 kts 298°
2026-05-06 12:46 33.53726 108.59421 30331 ft 517 kts 310°
2026-05-06 12:47 33.56479 108.56622 29603 ft 524 kts 323°
2026-05-06 12:47 33.59710 108.54631 28909 ft 523 kts 335°
2026-05-06 12:47 33.63207 108.53582 28248 ft 502 kts 348°
2026-05-06 12:47 33.66733 108.53495 27578 ft 504 kts
2026-05-06 12:48 33.70101 108.54322 26935 ft 486 kts 13°
2026-05-06 12:48 33.73150 108.55892 26341 ft 467 kts 22°
2026-05-06 12:48 33.75997 108.57612 25742 ft 452 kts 22°
2026-05-06 12:48 33.78780 108.59290 25154 ft 444 kts 22°
2026-05-06 12:49 33.81538 108.60937 24577 ft 442 kts 22°
2026-05-06 12:49 33.84294 108.62587 23993 ft 442 kts 23°
2026-05-06 12:49 33.87046 108.64247 23361 ft 443 kts 23°
2026-05-06 12:49 33.89781 108.65899 22772 ft 437 kts 23°
2026-05-06 12:50 33.92476 108.67521 22204 ft 431 kts 23°
2026-05-06 12:50 33.95145 108.69126 21628 ft 425 kts 24°
2026-05-06 12:50 33.97770 108.70710 21071 ft 420 kts 24°
2026-05-06 12:50 34.00364 108.72278 20521 ft 414 kts 24°
2026-05-06 12:51 34.02057 108.73301 20164 ft 409 kts 24°
2026-05-06 12:51 34.05561 108.74870 19429 ft 397 kts 13°
2026-05-06 12:51 34.07328 108.75404 19105 ft 394 kts 12°
2026-05-06 12:51 34.09979 108.76199 18579 ft 390 kts 13°
2026-05-06 12:52 34.13417 108.77303 17863 ft 382 kts 14°
2026-05-06 12:52 34.15963 108.78126 17363 ft 376 kts 14°
2026-05-06 12:52 34.18484 108.78916 16864 ft 372 kts 13°
2026-05-06 12:52 34.20960 108.79691 16379 ft 368 kts 14°
2026-05-06 12:53 34.23419 108.80474 15893 ft 364 kts 14°
2026-05-06 12:53 34.25068 108.81000 15569 ft 361 kts 14°
2026-05-06 12:53 34.28256 108.82011 14942 ft 355 kts 14°
2026-05-06 12:53 34.30635 108.82765 14477 ft 352 kts 14°
2026-05-06 12:54 34.32991 108.83514 14011 ft 348 kts 14°
2026-05-06 12:54 34.34551 108.84050 13669 ft 340 kts 17°
2026-05-06 12:54 34.36573 108.85382 13195 ft 324 kts 35°
2026-05-06 12:54 34.38151 108.87228 12802 ft 307 kts 46°
2026-05-06 12:55 34.39516 108.89127 12423 ft 292 kts 46°
2026-05-06 12:55 34.40834 108.90923 12041 ft 279 kts 46°
2026-05-06 12:55 34.42100 108.92645 11678 ft 269 kts 46°
2026-05-06 12:55 34.43314 108.94311 11322 ft 259 kts 46°
2026-05-06 12:56 34.44511 108.95895 10959 ft 249 kts 40°
2026-05-06 12:56 34.46048 108.96782 10187 ft 252 kts 15°
2026-05-06 12:56 34.47824 108.96877 8244 ft 256 kts 353°
2026-05-06 12:56 34.49464 108.96173 6401 ft 248 kts 334°
2026-05-06 12:57 34.50756 108.94838 4608 ft 244 kts 311°
2026-05-06 12:57 34.51532 108.93080 3449 ft 224 kts 289°
2026-05-06 12:57 34.51759 108.91371 3022 ft 185 kts 270°
2026-05-06 12:57 34.51629 108.89982 2915 ft 154 kts 258°
2026-05-06 12:58 34.51262 108.88753 2273 ft 158 kts 243°
2026-05-06 12:58 34.50660 108.87671 1909 ft 146 kts 231°
2026-05-06 12:58 34.50061 108.86796 1836 ft 125 kts 232°
2026-05-06 12:58 34.49559 108.86037 1969 ft 110 kts 232°
2026-05-06 12:59 34.49044 108.85245 2066 ft 133 kts 235°
2026-05-06 12:59 34.48647 108.84212 2036 ft 131 kts 253°
2026-05-06 12:59 34.48528 108.83117 2040 ft 132 kts 270°
2026-05-06 12:59 34.48282 108.82199 2040 ft 115 kts 219°
2026-05-06 13:00 34.47539 108.81725 1991 ft 122 kts 208°
2026-05-06 13:00 34.46643 108.81308 1979 ft 141 kts 210°
2026-05-06 13:00 34.45966 108.80498 1969 ft 141 kts 227°
2026-05-06 13:00 34.45306 108.79582 1883 ft 140 kts 230°
2026-05-06 13:01 34.44685 108.78707 1705 ft 133 kts 229°
2026-05-06 13:01 34.44098 108.77882 1522 ft 124 kts 230°
2026-05-06 13:01 34.43622 108.77223 1518 ft 76 kts 229°
2026-05-06 13:01 34.43376 108.76882 1517 ft 42 kts 231°
2026-05-06 13:02 34.43274 108.76690 1519 ft 24 kts 249°
2026-05-06 13:02 34.43226 108.76513 1519 ft 14 kts 288°
2026-05-06 13:02 34.43232 108.76505 1519 ft 0 kts 309°
2026-05-06 13:03 34.43239 108.76477 1517 ft 10 kts 290°
2026-05-06 13:03 34.43288 108.76440 1518 ft 8 kts 22°
2026-05-06 13:03 34.43350 108.76514 1518 ft 15 kts 31°
2026-05-06 13:03 34.43431 108.76480 1516 ft 12 kts 320°
2026-05-06 13:04 34.43495 108.76417 1518 ft 11 kts 321°
2026-05-06 13:04 34.43534 108.76371 1516 ft 1 kts 318°
2026-05-06 13:04 34.43558 108.76419 1517 ft 11 kts 101°
2026-05-06 13:04 34.43588 108.76502 1517 ft 11 kts 18°
2026-05-06 13:05 34.43644 108.76473 1517 ft 4 kts 291°
2026-05-06 13:05 34.43638 108.76437 1517 ft 5 kts 237°
2026-05-06 13:05 34.43615 108.76407 1517 ft 4 kts 229°
2026-05-06 13:05 34.43608 108.76397 1517 ft 3 kts 229°
2026-05-06 13:06 34.43602 108.76389 1517 ft 0 kts 229°